CW9703 Weather Reports


Display with metric or nautical units.
time (UTC)temp
F
wind
direction
speed
MPH
gust
MPH
rain 1hr
in
rain 24hr
in
rain mn
in
humidity
%
barometer
mb
20170920233636 71 94 0.0 0.0 0.00 0.08 0.08 91 1013.7
20170920231435 71 94 0.0 1.0 0.00 0.08 0.08 90 1013.7
20170920225235 71 100 7.0 7.0 0.00 0.08 0.08 92 1013.6
20170920220834 72 104 6.0 7.0 0.00 0.08 0.08 92 1013.8
20170920201833 71 113 3.0 3.0 0.00 0.08 0.08 92 1014.2
20170920195632 71 121 3.0 4.0 0.00 0.08 0.08 93 1014.2
20170920191232 71 114 2.0 2.0 0.00 0.08 0.08 94 1014.6
20170920185031 70 111 6.0 7.0 0.00 0.08 0.08 93 1014.5
20170920172231 69 140 0.0 3.0 0.00 0.08 0.08 94 1015.3
20170920163830 70 130 3.0 3.0 0.00 0.08 0.08 94 1015.4
20170920155429 69 117 3.0 4.0 0.07 0.08 0.08 96 1015.6
20170920151033 68 115 4.0 6.0 0.07 0.08 0.08 96 1015.6
20170920144828 68 101 5.0 6.0 0.00 0.01 0.01 97 1015.3
20170920142628 68 105 7.0 8.0 0.00 0.01 0.01 98 1015.3
20170920140428 68 107 3.0 4.0 0.00 0.01 0.01 98 1015.7
20170920132027 67 86 0.0 0.0 0.00 0.01 0.01 98 1015.9
20170920125827 67 86 0.0 0.0 0.00 0.01 0.01 99 1016.0
20170920123627 66 86 0.0 0.0 0.00 0.01 0.01 98 1015.8
20170920115226 66 86 0.0 0.0 0.00 0.01 0.01 98 1015.7
20170920113026 66 86 0.0 0.0 0.00 0.01 0.01 98 1015.7
20170920104625 66 86 0.0 0.0 0.00 0.01 0.01 98 1015.3
20170920102425 66 86 0.0 0.0 0.00 0.01 0.01 98 1015.0
20170920100225 66 86 0.0 0.0 0.00 0.01 0.01 98 1014.8
20170920094024 66 86 0.0 0.0 0.01 0.01 0.01 98 1014.7
20170920085624 66 88 0.0 0.0 0.01 0.01 0.01 98 1014.5
20170920072823 66 98 0.0 0.0 0.00 0.00 0.00 97 1014.5
20170920070622 66 84 0.0 0.0 0.00 0.00 0.00 97 1014.6
20170920064422 66 84 0.0 1.0 0.00 0.00 0.00 97 1014.7
20170920060021 66 84 0.0 0.0 0.00 0.00 0.00 97 1014.9
20170920053821 66 84 0.0 0.0 0.00 0.00 0.00 97 1015.1
20170920043220 66 84 0.0 1.0 0.00 0.00 0.00 96 1015.2
20170920034820 66 88 0.0 1.0 0.00 0.00 0.00 97 1015.4
20170920032619 66 90 0.0 0.0 0.00 0.00 0.00 96 1015.4
20170920024219 66 92 0.0 1.0 0.00 0.00 0.00 96 1015.5
20170920022019 65 94 0.0 1.0 0.00 0.00 0.00 96 1015.6
20170920013618 64 89 1.0 2.0 0.00 0.00 0.00 95 1015.6
20170920005217 64 62 0.0 2.0 0.00 0.00 0.00 93 1015.7
20170920000817 64 47 0.0 1.0 0.00 0.00 0.00 92 1015.6